Regional Weather Roundup
Issued by NWS State College, PA

Home | Current Version | Previous Version | Graphics & Text | Print | Product List | Glossary On
Versions: 1 2 3 4 5 6 7 8 9 10 11 12 13 14 15 16 17 18 19 20 21 22 23 24 25 26 27 28 29 30 31 32 33 34 35 36 37 38 39 40 41 42 43 44 45 46 47 48 49 50
000
ASUS41 KCTP 291910
RWRCTP

REGIONAL WEATHER ROUNDUP
NATIONAL WEATHER SERVICE STATE COLLEGE PA
300 PM EDT SAT APR 29 2017

Note: "fair" indicates few or no clouds below 12,000 feet with no
significant weather and/or obstructions to visibility.

* = STATION THAT DOES NOT REPORT PRECIPITATION /E.G. RAIN...SNOW...ETC/
    THUNDER OR FOG.

PAZ002>004-007>009-013>016-020>023-029>032-292000-
WESTERN PENNSYLVANIA

CITY           SKY/WX    TMP DP  RH WIND       PRES   REMARKS
ERIE           CLOUDY    49  46  90 NW8       30.18R
MEADVILLE      LGT RAIN  55  54  96 N7        30.14R
FRANKLIN*      CLOUDY    57  54  88 CALM      30.12F
NEW CASTLE     CLOUDY    60  59  96 SW3       30.14R
BEAVER COUNTY  CLOUDY    61  61 100 S6        30.12R FOG
BUTLER*        PTSUNNY   63  61  94 CALM      30.14R
PITTSBURGH INT CLOUDY    67  65  93 VRB6      30.12F
PITTSBURGH     CLOUDY    67  62  84 VRB5      30.13F
INDIANA*       MOSUNNY   66  64  94 S5        30.16F
LATROBE        PTSUNNY   66  66 100 VRB5      30.15F
WASHINGTON CO* CLOUDY    66  63  88 S5        30.15F
$$

PAZ004>006-010>012-017>019-024>028-033>037-041-042-045-046-049>053-292000-
CENTRAL PENNSYLVANIA

CITY           SKY/WX    TMP DP  RH WIND       PRES   REMARKS
BRADFORD       LGT RAIN  54  53  97 NW6       30.16R FOG
DUBOIS         LGT RAIN  59  57  93 W5        30.11F FOG
CLEARFIELD     LGT RAIN  65  63  93 NW5       30.15S
JOHNSTOWN      CLOUDY    66  60  81 VRB6      30.17F
ALTOONA        CLOUDY    74  60  61 NW20G26   30.15R
STATE COLLEGE  CLOUDY    70  61  73 W20G25    30.16R
WILLIAMSPORT   PTSUNNY   72  61  68 W14       30.10R
SELINSGROVE    CLOUDY    75  66  73 NW7       30.09R
FT INDIANTOWN  CLOUDY    82  60  48 W15G23    30.06R
CAPITAL CITY   CLOUDY    83  62  49 W13       30.06R
HARRISBURG     CLOUDY    81  65  58 NW8       30.06R
YORK           CLOUDY    82  63  52 W9G17     30.07R
$$

PAZ038>040-043-044-047-048-054-055-060>062-067>071-292000-
EASTERN PENNSYLVANIA

CITY           SKY/WX    TMP DP  RH WIND       PRES   REMARKS
SCRANTON       CLOUDY    75  60  59 W21G28    30.05R
MOUNT POCONO   PTSUNNY   71  59  65 W22G31    30.07R
ALLENTOWN      PTSUNNY   82  62  50 W13G22    30.03R
QUAKERTOWN*    CLOUDY    82  63  51 W7G18     30.04R
READING        CLOUDY    81  63  54 W15G24    30.04R
LANCASTER      CLOUDY    80  65  59 W15       30.07R
COATESVILLE    MOCLDY    82  63  51 NW15G22   30.08R
POTTSTOWN      CLOUDY    83  60  45 W9G17     30.05R
BLUE BELL      SUNNY     81  61  50 W9G20     30.04R
DOYLESTOWN     MOSUNNY   83  61  47 W14G29    30.02R
WILLOW GROVE   NOT AVBL
NORTH PHILA    SUNNY     86  61  42 W20G25    30.02R
PHILADELPHIA   PTSUNNY   87  62  43 SW17      30.02R
$$



USA.gov is the U.S. government's official web portal to all federal, state and local government web resources and services.